Regional Weather Roundup
Issued by NWS

Home | Current Version | Previous Version | Graphics & Text | Print | Product List | Glossary On
Versions: 1 2 3 4 5 6 7 8 9 10 11 12 13 14 15 16 17 18 19 20 21 22 23 24 25 26 27 28 29 30 31 32 33 34 35 36 37 38 39 40 41 42 43 44 45 46 47 48 49 50
000
ASUS43 KIND 202359
RWRIN

WEATHER ROUNDUP FOR INDIANA
NATIONAL WEATHER SERVICE INDIANAPOLIS IN
700 PM EST MON NOV 20 2017

NOTE: "FAIR" INDICATES FEW OR NO CLOUDS BELOW 12,000 FEET WITH NO
SIGNIFICANT WEATHER AND/OR OBSTRUCTIONS TO VISIBILITY.

* - STATION DOES NOT REPORT WEATHER SUCH AS PRECIPITATION OR FOG.

+ - STATION NOT QUALITY CONTROLLED BY THE NATIONAL WEATHER SERVICE.
    USE DATA WITH CAUTION...ESPECIALLY DEWPOINT AND RELATIVE
    HUMIDITY OBSERVATIONS.

INZ001>003-010>013-019-020-210100-
NORTHWEST INDIANA

CITY           SKY/WX    TMP DP  RH WIND       PRES   REMARKS
GARY /AIRPORT/ PTCLDY    48  30  49 S16G32    29.79F
KNOX *+        CLEAR     45  32  61 S20       29.85S
LA PORTE +     CLEAR     44  32  62 S17G24    29.82F
6HR MIN TEMP:  44; 6HR MAX TEMP:  50;

MICHIGAN CITY+ CLEAR     45  32  61 S17G28    29.80F
MONTICELLO +   CLEAR     44  28  54 S13G20    29.88F
6HR MIN TEMP:  44; 6HR MAX TEMP:  51;

RENSSELAER +   CLEAR     43  27  52 S14       29.86F

$$

LMZ046-743>745-210100-
SOUTHERN LAKE MICHIGAN

STATION/POSITION TIME  TEMP    WIND        PRES    WAVE
                       AIR SEA DIR/SP/G            HT
                 (UTC) (F)     (DEG/KT/KT) (MB)    (FT)
BURNS HARBOR     2340   47     190/ 20/ 34 1009.1F
MICHIGAN CITY    2330   47     180/ 21/ 24   N/A

$$

INZ004-005-014>016-021>024-210100-
NORTH CENTRAL INDIANA

CITY           SKY/WX    TMP DP  RH WIND       PRES   REMARKS
ELKHART        CLEAR     45  28  53 SW12G17   29.83F
GOSHEN         CLEAR     44  26  49 S18       29.85S
6HR MIN TEMP:  44; 6HR MAX TEMP:  49;

PERU/GRISSOM   CLEAR     42  28  56 S12       29.91S
6HR MIN TEMP:  41; 6HR MAX TEMP:  50;

SOUTH BEND     CLEAR     45  30  55 S16       29.83F
6HR MIN TEMP:  45; 6HR MAX TEMP:  50;

WARSAW +       CLEAR     45  27  49 S13G18    29.87F

$$

INZ006>009-017-018-025>027-210100-
NORTHEAST INDIANA

CITY           SKY/WX    TMP DP  RH WIND       PRES   REMARKS
AUBURN +       CLEAR     43  28  56 S10G21    29.91R
FORT WAYNE     PTCLDY    42  29  59 S15       29.93S
6HR MIN TEMP:  41; 6HR MAX TEMP:  49;

KENDALLVILLE + CLEAR     42  29  59 S16G23    29.88S

$$

INZ028-029-035-036-043>045-051>053-210100-
WEST CENTRAL INDIANA

CITY           SKY/WX    TMP DP  RH WIND       PRES   REMARKS
CRAWFORDSVL +  CLEAR     40  28  61 S13         N/A  WCI  33
6HR MIN TEMP:  40; 6HR MAX TEMP:  46;

GREENCASTLE +  CLEAR     43  23  45 S8G16     29.98S
LAFAYETTE      CLEAR     43  30  60 S10       29.91S
6HR MIN TEMP:  43; 6HR MAX TEMP:  50;

TERRE HAUTE    CLEAR     44  27  51 S13       29.97F
6HR MIN TEMP:  44; 6HR MAX TEMP:  51;


$$

INZ030>032-037>040-046>048-054>057-064-065-210100-
CENTRAL INDIANA

CITY           SKY/WX    TMP DP  RH WIND       PRES   REMARKS
FRANKFORT +    CLEAR     44  30  59 S13G18    29.94F
6HR MIN TEMP:  43; 6HR MAX TEMP:  52;

INDIANAPOLIS   PTCLDY    44  24  45 S14       29.98F
6HR MIN TEMP:  44; 6HR MAX TEMP:  50;

-EAGLE CREEK   CLEAR     45  22  40 S8        29.97S
6HR MIN TEMP:  45; 6HR MAX TEMP:  51;

KOKOMO +       CLEAR     42  27  55 S13       29.93F
6HR MIN TEMP:  42; 6HR MAX TEMP:  50;

MT COMFORT *+  CLEAR     41  30  65 S10       29.99S
SHELBYVILLE    CLEAR     43  25  49 S13       30.00F
6HR MIN TEMP:  43; 6HR MAX TEMP:  49;


$$

INZ033-034-041-042-049-050-058-059-210100-
EAST CENTRAL INDIANA

CITY           SKY/WX    TMP DP  RH WIND       PRES   REMARKS
MUNCIE         CLEAR     44  25  47 S15G23    29.97S
6HR MIN TEMP:  44; 6HR MAX TEMP:  49;

RICHMOND +     CLOUDY    34  28  80 S12       30.03S WCI  25

$$

INZ060-061-067>069-081>083-085>088-210100-
SOUTHWEST INDIANA

CITY           SKY/WX    TMP DP  RH WIND       PRES   REMARKS
EVANSVILLE     CLEAR     45  26  47 S6        30.05R
6HR MIN TEMP:  44; 6HR MAX TEMP:  51;

HUNTINGBURG +  CLEAR     44  25  47 SE3       30.05F
6HR MIN TEMP:  43; 6HR MAX TEMP:  50;


$$

INZ062-063-066-070>080-084-089>092-210100-
SOUTH CENTRAL AND SOUTHEAST INDIANA

CITY           SKY/WX    TMP DP  RH WIND       PRES   REMARKS
BLOOMINGTON    CLEAR     44  22  41 S12       30.00S
6HR MIN TEMP:  41; 6HR MAX TEMP:  51;

MADISON *+     CLOUDY    43  27  52 SE9       30.08S
SEYMOUR +      CLOUDY    41  25  52 S8        30.05F

$$





USA.gov is the U.S. government's official web portal to all federal, state and local government web resources and services.